Puerto Plata, Dominican Republic

1:58 AM AST on March 25, 2017 (GMT -0400)
Puerto Plata

Weather History for MDPP - October, 2012

Change the Weather History Date:

Sunday, October 28, 2012

  Actual Average Record
Temperature  
Mean Temperature 79 °F -  
Max Temperature 87 °F 84 °F 91 °F (2002)
Min Temperature 71 °F 71 °F 69 °F (2004)
Cooling Degree Days 14    
Growing Degree Days 29 (Base 50)    
Moisture  
Dew Point 73 °F    
Average Humidity 72    
Maximum Humidity 100    
Minimum Humidity 52    
Precipitation  
Precipitation 0.00 in - - ()
Sea Level Pressure  
Sea Level Pressure 29.78 in    
Wind  
Wind Speed 6 mph ()    
Max Wind Speed 17 mph    
Max Gust Speed -    
Visibility 7.3 miles    
Events      
Averages and records for this station are not official NWS values.
T = Trace of Precipitation, MM = Missing Value Source: Averaged Metar Reports

Daily Weather History Graph

Daily Weather History Graph

Search for Another Location

Airport or City:

Trip Planner

Search our weather history database for the weather conditions in past years. The results will help you decide how hot, cold, wet, or windy it might be!

Date:

Astronomy

Oct. 28, 2012 Rise Set
Actual Time 6:41 AM AST 6:09 PM AST
Civil Twilight 6:19 AM AST 6:32 PM AST
Nautical Twilight 5:53 AM AST 6:58 PM AST
Astronomical Twilight 5:27 AM AST 7:24 PM AST
Moon 5:24 PM AST (10/28) 5:35 AM AST (10/28)
Length of Visible Light 12h 13m
Length of Day
11h 28m
Waxing Gibbous, 99% of the Moon is Illuminated
Oct 28
Waxing Gibbous
Oct 29
Full
Nov 6
Last Quarter
Nov 13
New
Nov 20
First Quarter

Hourly Weather History & Observations

Time (AST) Temp. Heat Index Dew Point Humidity Pressure Visibility Wind Dir Wind Speed Gust Speed Precip Events Conditions
2:00 AM 75.2 °F - 75.2 °F 100% 29.80 in 6.2 mi Calm Calm - N/A   Partly Cloudy
8:00 AM 73 °F - 69 °F 82% 29.77 in 10 mi Calm Calm - -   Scattered Clouds
8:00 AM 73.4 °F - 68.0 °F 83% 29.77 in 6.2 mi Calm Calm - N/A   Partly Cloudy
9:00 AM 82.4 °F 88.2 °F 73.4 °F 74% 29.77 in 6.2 mi Calm Calm - N/A   Partly Cloudy
10:00 AM 82.4 °F 88.2 °F 73.4 °F 74% 29.77 in 6.2 mi Calm Calm - N/A   Partly Cloudy
11:00 AM 88 °F - 73 °F 52% 29.80 in 10 mi ENE 6.7 mph - -   Scattered Clouds
11:00 AM 87.8 °F 95.6 °F 73.4 °F 62% 29.80 in 6.2 mi ENE 6.9 mph - N/A   Partly Cloudy
12:00 PM 89.6 °F 98.2 °F 73.4 °F 59% 29.80 in 6.2 mi ENE 6.9 mph - N/A   Partly Cloudy
1:00 PM 87.8 °F 97.6 °F 75.2 °F 66% 29.77 in 6.2 mi ENE 6.9 mph - N/A   Partly Cloudy
2:00 PM 87 °F - 75 °F 59% 29.75 in 10 mi North 15.7 mph - -   Partly Cloudy
2:00 PM 87.8 °F 97.6 °F 75.2 °F 66% 29.74 in 6.2 mi North 15.0 mph - N/A   Scattered Clouds
3:00 PM 84.2 °F 92.3 °F 75.2 °F 74% 29.74 in 6.2 mi SE 11.5 mph - N/A   Scattered Clouds
4:00 PM 84.2 °F 92.3 °F 75.2 °F 74% 29.74 in 6.2 mi NW 17.3 mph - N/A   Mostly Cloudy
5:00 PM 84 °F - 74 °F 66% 29.76 in 10 mi NW 13.4 mph - -   Partly Cloudy
5:00 PM 84.2 °F 92.3 °F 75.2 °F 74% 29.74 in 6.2 mi NW 13.8 mph - N/A   Scattered Clouds
6:00 PM 82.4 °F 89.5 °F 75.2 °F 79% 29.77 in 6.2 mi NNW 13.8 mph - N/A   Scattered Clouds
7:00 PM 82.4 °F 87.2 °F 71.6 °F 70% 29.77 in 6.2 mi NW 11.5 mph - N/A   Scattered Clouds
8:00 PM 82 °F - 71 °F 61% 29.80 in 10 mi NW 11.2 mph - -   Partly Cloudy
8:00 PM 82.4 °F 87.2 °F 71.6 °F 70% 29.80 in 6.2 mi NW 11.5 mph - N/A   Mostly Cloudy
11:00 PM 77 °F - 71 °F 78% 29.85 in 10 mi SSE 11.2 mph - -   Scattered Clouds
11:00 PM 77.0 °F - 71.6 °F 83% 29.83 in 6.2 mi SSE 11.5 mph - N/A   Partly Cloudy